Wind_Speed
4 4 4 4 5 4 5 5 5 5 5 6 6 6 7 7 8 7 7 8 7 7 7 7 8 8 8 7 7 6 6 6 6 6 6 5 4 3 3 2 3 3 4 4
5 4 4 5 5 6 5 5 5 6 6 6 6 6 6 7 7 7 7 7 7 7 7 7 7 8 7 7 7 6 7 6 6 6 6 5 4 3 3 3 3 3 4 4
6 6 6 6 6 6 6 6 5 6 6 6 5 6 6 6 7 8 8 8 7 7 7 7 7 7 7 7 7 7 7 7 7 6 5 5 4 3 3 3 3 3 4 5
7 7 7 7 7 7 7 6 6 6 6 5 5 5 6 7 7 7 8 8 8 8 8 7 7 7 7 7 7 7 7 7 7 6 6 5 5 4 3 3 3 3 4 5
8 8 7 8 8 7 7 7 6 5 5 6 6 7 7 8 8 8 8 9 9 9 8 8 8 7 8 7 6 7 7 7 7 7 7 6 5 4 4 3 3 3 4 5
8 8 8 8 8 7 7 7 6 6 7 7 7 8 8 8 9 9 8 9 9 9 10 9 9 8 8 8 7 7 7 7 7 7 7 6 6 5 4 4 3 3 4 5
9 9 9 8 8 9 8 7 7 6 7 7 7 9 10 8 10 11 10 10 10 10 11 10 10 9 8 8 8 8 8 7 7 6 6 6 6 5 5 4 4 4 5 5
11 11 10 10 10 10 10 9 7 6 6 7 9 10 10 10 11 11 10 10 10 11 10 10 10 10 10 9 9 10 9 9 8 7 7 7 7 6 6 6 5 5 6 6
11 12 11 11 11 11 11 11 10 9 8 8 9 10 11 10 11 12 11 10 10 10 10 10 10 10 10 10 10 10 10 9 9 9 8 8 7 7 7 6 6 6 6 6
13 12 12 12 12 12 12 12 12 11 10 9 8 10 11 10 10 11 11 10 10 10 10 10 10 10 10 10 10 10 10 10 10 9 9 9 9 8 8 7 7 7 7 7
14 13 13 13 12 12 12 13 12 11 11 10 9 10 12 12 11 11 11 10 10 10 10 11 11 11 10 10 11 11 11 10 9 9 9 9 9 9 9 9 8 8 8 9
14 14 14 14 13 13 13 13 13 13 12 12 12 12 12 12 12 12 11 10 11 11 11 10 11 11 10 10 10 11 11 11 10 10 10 10 8 8 9 9 9 9 9 9
16 14 14 15 15 14 14 14 14 14 14 13 13 13 13 13 12 12 11 10 10 10 10 10 11 11 11 11 11 11 11 11 11 11 11 11 10 10 10 10 10 10 9 9
18 17 16 15 14 15 14 14 15 15 15 14 13 13 14 13 13 12 12 11 11 11 11 11 12 13 13 13 13 12 12 12 12 12 12 12 11 11 11 11 11 10 10 10
18 18 18 16 15 15 15 15 15 15 14 15 14 14 15 15 14 13 13 12 12 12 12 12 12 13 13 13 13 13 13 14 13 13 13 13 13 13 12 12 12 12 12 12
18 18 18 18 17 17 16 16 16 15 15 15 14 14 15 15 15 15 13 13 13 13 13 13 13 12 13 13 14 14 14 15 15 15 15 15 14 14 14 14 13 13 13 13
18 18 18 18 18 18 18 16 16 16 15 15 15 14 14 15 15 15 14 14 13 13 13 13 13 13 13 14 14 14 14 15 15 15 15 15 15 15 15 15 15 15 15 15
20 20 20 19 19 20 17 17 17 17 16 15 15 14 15 15 14 14 14 14 14 14 14 14 14 13 13 14 14 15 15 15 15 15 16 16 16 16 16 16 16 16 16 16
21 21 20 20 21 20 18 17 17 17 18 17 16 15 16 16 15 14 13 13 13 13 13 14 14 14 14 14 15 15 16 16 15 15 16 16 17 17 17 16 17 16 16 17
22 22 22 21 21 20 18 18 18 18 18 17 17 17 16 16 16 15 14 14 14 14 13 13 14 15 15 15 15 16 16 16 16 16 17 17 18 18 18 18 18 18 17 18
23 24 24 23 22 21 20 20 20 20 19 17 17 18 17 18 17 15 15 15 15 15 14 14 15 15 16 16 16 17 17 17 17 17 18 18 19 19 19 20 20 20 19 20
25 25 25 24 24 22 22 22 21 21 20 19 19 19 19 19 17 17 16 16 16 16 15 15 16 16 17 17 17 17 18 18 18 19 19 19 20 21 20 21 21 21 20 21
27 26 25 25 25 23 22 22 22 22 22 21 21 21 21 20 19 18 18 17 17 17 17 17 17 17 17 18 19 19 19 19 20 20 20 21 22 22 22 22 22 21 21 21
28 26 26 26 26 26 25 24 24 24 24 23 23 23 22 21 21 20 19 19 19 19 19 19 19 19 18 19 20 21 21 21 21 21 22 22 23 23 23 23 23 22 22 22
29 28 27 28 27 27 27 27 26 26 25 26 25 24 23 22 22 22 21 21 20 20 20 20 20 20 20 20 21 22 22 23 23 23 23 23 23 24 24 23 23 23 23 24
30 29 29 28 27 27 27 27 27 27 26 26 26 26 25 24 24 23 23 22 21 21 21 21 22 22 21 21 22 22 23 24 24 24 24 24 24 24 24 24 24 25 25 26
Wind_Direction
216 218 215 207 206 210 209 213 220 223 226 226 230 234 236 223 224 224 224 223 222 224 224 226 223 221 218 215 212 214 216 214 217 219 220 215 221 236 258 269 289 305 316 324
221 224 220 219 214 208 208 209 217 226 232 232 236 242 239 227 228 230 230 227 225 224 223 228 231 221 215 215 218 221 219 216 214 210 212 218 229 239 257 270 288 306 318 324
227 224 223 221 219 214 217 213 219 225 231 231 230 238 241 237 236 237 238 234 229 228 226 228 228 223 220 221 222 222 220 218 215 215 217 223 233 243 256 270 284 301 316 323
223 222 219 219 218 219 219 213 218 223 227 228 230 239 246 242 241 247 249 242 238 233 229 228 228 225 222 222 222 224 220 218 217 220 223 226 234 240 247 268 285 301 311 320
226 225 222 225 223 216 215 215 212 220 231 234 240 248 253 250 249 250 251 245 240 233 233 232 227 226 226 222 223 225 223 221 222 224 225 230 235 243 254 267 291 314 321 322
228 226 223 223 220 214 211 210 217 223 233 242 247 255 257 256 257 256 251 245 241 236 237 236 228 226 226 228 229 227 227 226 224 224 226 233 237 244 259 271 286 306 315 318
236 233 225 218 215 215 217 213 215 222 237 252 256 260 257 256 260 261 254 247 244 242 240 236 228 227 226 226 226 226 228 227 228 225 225 231 236 248 262 273 285 301 308 312
236 234 227 226 226 221 216 216 216 218 232 247 261 265 263 260 260 262 257 248 248 248 243 238 231 229 226 224 223 225 229 231 234 234 235 240 246 257 266 270 280 292 298 305
232 233 228 227 229 224 217 217 216 220 221 237 256 268 270 266 262 259 257 250 250 248 242 239 237 232 228 226 225 226 230 232 237 240 239 243 253 261 266 268 277 285 294 302
231 234 233 229 230 230 227 222 218 217 226 234 249 267 273 270 265 259 256 251 246 245 239 235 235 232 229 228 228 230 235 236 238 238 241 246 251 258 260 269 279 282 289 297
232 234 234 232 229 232 229 227 227 230 231 234 241 253 267 273 267 259 254 250 244 243 238 235 234 232 232 233 232 233 237 239 240 240 244 245 252 258 262 270 278 282 288 292
233 231 233 235 233 232 231 231 230 232 236 237 245 257 261 267 265 258 253 250 247 245 241 236 235 235 234 234 234 235 238 240 241 243 245 247 251 257 265 271 276 280 287 292
233 231 231 235 236 237 236 233 230 232 234 237 246 256 261 264 258 255 253 249 250 247 243 239 237 236 237 238 239 240 240 242 245 246 248 251 254 259 264 269 274 277 283 288
233 232 233 236 241 242 239 236 235 235 237 238 240 249 259 261 255 253 254 252 252 250 246 243 242 240 237 240 243 243 244 247 249 249 250 254 255 257 262 265 271 274 280 286
231 232 235 236 240 243 241 240 240 240 242 241 240 247 252 258 255 253 252 250 249 249 248 247 246 243 240 241 244 245 245 248 251 251 252 256 257 259 262 265 270 272 276 284
231 232 234 236 240 241 243 242 243 243 243 246 245 247 248 252 254 254 255 251 248 247 247 246 245 244 242 242 243 245 248 249 250 251 252 255 257 260 261 264 267 269 274 280
233 234 234 236 240 242 243 243 244 244 244 246 247 247 247 249 254 255 255 252 249 247 247 246 245 244 243 243 244 245 248 251 252 252 252 256 259 260 261 264 266 269 272 278
233 234 237 238 241 245 247 244 244 244 245 247 248 248 249 250 253 255 254 250 247 249 249 246 245 245 245 245 245 245 248 250 252 254 255 257 258 260 262 265 268 271 273 277
234 236 238 239 243 247 247 246 246 245 246 247 247 247 247 249 252 253 253 249 248 249 250 250 248 248 248 249 248 247 248 250 252 256 257 258 258 260 263 266 269 271 274 277
236 237 240 241 245 248 247 248 246 247 247 246 247 248 247 247 249 249 250 251 250 254 256 255 253 253 251 251 251 251 253 254 256 258 261 260 260 261 262 266 269 270 272 277
237 238 240 243 244 246 246 248 247 246 247 246 248 248 247 248 251 252 251 250 252 256 258 258 256 255 254 254 253 253 254 256 258 260 262 262 262 262 262 265 268 270 272 276
235 239 240 243 244 245 246 247 246 247 246 247 247 248 247 249 250 252 253 252 253 256 257 258 258 257 256 255 255 255 256 259 260 261 262 263 265 266 264 266 268 269 272 276
236 238 241 244 245 246 246 245 245 245 247 247 247 248 248 250 252 254 255 256 256 259 258 259 260 259 259 257 257 258 259 260 263 264 265 265 266 267 267 268 270 270 272 276
238 240 241 244 245 247 246 244 246 246 246 246 247 249 251 251 252 254 257 259 260 260 260 260 258 258 259 259 259 261 261 263 265 267 268 267 266 267 268 269 270 273 276 278
237 238 240 244 248 249 248 247 248 248 249 248 248 248 248 249 251 253 256 258 259 259 261 261 259 259 260 260 262 263 263 264 266 268 269 268 268 268 269 270 271 274 276 278
236 238 240 242 243 246 246 247 247 247 248 249 249 249 249 250 252 254 256 257 258 258 260 261 260 261 263 261 262 263 265 266 268 268 268 268 268 270 271 271 271 273 276 278
Height
5846 5848 5849 5850 5851 5852 5852 5854 5855 5856 5857 5858 5859 5860 5861 5862 5864 5865 5866 5868 5869 5870 5871 5873 5874 5875 5877 5879 5880 5882 5883 5885 5886 5887 5889 5890 5891 5891 5892 5892 5892 5892 5892 5892
5847 5847 5849 5849 5850 5851 5852 5853 5854 5856 5856 5858 5859 5860 5861 5862 5863 5865 5866 5867 5868 5870 5871 5872 5873 5875 5876 5878 5879 5881 5882 5884 5885 5887 5888 5889 5890 5890 5891 5891 5892 5892 5891 5891
5845 5847 5848 5849 5850 5851 5851 5853 5854 5855 5856 5857 5858 5859 5860 5862 5863 5864 5865 5866 5867 5869 5870 5871 5872 5874 5876 5877 5878 5880 5881 5883 5884 5886 5887 5888 5889 5890 5890 5891 5891 5891 5891 5890
5844 5846 5847 5848 5849 5850 5851 5852 5853 5854 5855 5857 5858 5859 5860 5861 5862 5863 5864 5865 5866 5868 5869 5870 5871 5873 5874 5876 5877 5879 5880 5882 5883 5884 5886 5887 5888 5889 5890 5890 5890 5890 5890 5889
5843 5845 5846 5847 5848 5849 5851 5852 5853 5854 5855 5856 5857 5858 5860 5859 5861 5862 5863 5864 5865 5866 5868 5869 5870 5872 5873 5875 5876 5878 5879 5881 5882 5883 5885 5886 5887 5888 5889 5889 5889 5889 5889 5889
5842 5843 5845 5846 5847 5849 5850 5851 5852 5853 5854 5856 5857 5858 5859 5859 5860 5861 5862 5863 5864 5865 5866 5868 5869 5870 5872 5873 5875 5876 5878 5880 5881 5882 5884 5885 5886 5887 5888 5888 5888 5888 5888 5888
5840 5842 5843 5844 5846 5847 5849 5851 5852 5853 5854 5855 5856 5856 5858 5857 5858 5859 5861 5862 5862 5863 5865 5866 5867 5869 5870 5872 5873 5875 5877 5878 5880 5881 5882 5884 5885 5886 5886 5887 5887 5887 5887 5887
5838 5840 5842 5843 5844 5846 5847 5849 5851 5853 5854 5855 5855 5855 5856 5856 5857 5857 5858 5859 5860 5862 5863 5864 5866 5867 5869 5870 5872 5873 5875 5877 5878 5880 5881 5882 5883 5884 5885 5885 5886 5886 5886 5886
5837 5838 5840 5841 5843 5844 5846 5847 5849 5851 5852 5853 5853 5854 5854 5854 5855 5856 5856 5857 5859 5860 5861 5862 5864 5865 5867 5868 5870 5872 5873 5875 5876 5878 5879 5880 5882 5882 5883 5883 5884 5884 5884 5884
5834 5836 5837 5839 5841 5842 5844 5846 5847 5849 5850 5851 5852 5852 5852 5852 5853 5854 5854 5855 5857 5858 5859 5860 5862 5863 5865 5866 5868 5870 5871 5873 5874 5876 5877 5879 5880 5880 5881 5881 5882 5882 5882 5882
5832 5833 5835 5837 5838 5840 5842 5843 5844 5846 5847 5849 5850 5852 5850 5850 5851 5852 5852 5854 5855 5856 5857 5858 5860 5861 5863 5864 5866 5868 5869 5871 5872 5874 5875 5876 5877 5878 5879 5880 5880 5880 5880 5880
5828 5830 5831 5834 5836 5837 5839 5840 5842 5844 5845 5846 5847 5850 5848 5848 5848 5849 5850 5851 5852 5854 5855 5856 5858 5859 5861 5863 5864 5866 5867 5869 5870 5872 5873 5874 5875 5876 5877 5877 5878 5878 5878 5878
5825 5827 5829 5831 5834 5835 5836 5837 5839 5841 5842 5843 5844 5847 5845 5846 5846 5847 5848 5849 5850 5852 5853 5854 5856 5857 5859 5861 5862 5863 5865 5866 5868 5869 5870 5871 5872 5873 5874 5875 5875 5875 5876 5875
5822 5824 5827 5829 5830 5831 5832 5834 5836 5837 5839 5840 5841 5842 5842 5843 5844 5845 5846 5847 5848 5849 5850 5852 5853 5855 5856 5858 5860 5861 5862 5864 5865 5866 5868 5869 5870 5871 5871 5872 5873 5873 5873 5873
5817 5820 5822 5824 5826 5827 5828 5830 5832 5834 5835 5837 5838 5839 5840 5840 5841 5842 5843 5844 5845 5846 5848 5849 5850 5852 5853 5855 5857 5858 5859 5861 5862 5864 5865 5866 5867 5868 5868 5869 5870 5870 5870 5870
5814 5816 5818 5820 5822 5823 5825 5827 5829 5830 5832 5833 5834 5836 5837 5837 5838 5839 5840 5841 5842 5844 5845 5846 5847 5849 5851 5852 5853 5855 5856 5858 5859 5860 5861 5862 5863 5864 5865 5866 5866 5867 5867 5867
5809 5812 5814 5816 5818 5819 5821 5824 5825 5827 5828 5830 5831 5833 5833 5834 5834 5836 5837 5838 5839 5840 5842 5843 5844 5846 5847 5849 5850 5851 5852 5854 5855 5856 5858 5859 5860 5861 5862 5862 5863 5863 5863 5863
5805 5808 5810 5812 5815 5815 5820 5820 5821 5823 5825 5826 5827 5828 5829 5830 5831 5832 5833 5834 5835 5837 5838 5839 5841 5842 5843 5845 5846 5847 5849 5850 5851 5852 5854 5855 5856 5857 5858 5858 5859 5859 5859 5859
5801 5803 5805 5807 5809 5811 5814 5816 5817 5819 5821 5822 5823 5825 5825 5826 5828 5829 5830 5831 5832 5833 5835 5836 5837 5838 5840 5841 5842 5844 5845 5846 5847 5849 5850 5851 5852 5852 5853 5854 5854 5855 5855 5855
5796 5799 5801 5803 5804 5806 5811 5811 5813 5816 5816 5818 5819 5820 5822 5823 5824 5826 5827 5827 5829 5830 5831 5832 5833 5834 5836 5837 5838 5840 5841 5842 5843 5844 5845 5846 5847 5848 5848 5849 5850 5850 5850 5850
5791 5793 5795 5797 5799 5801 5805 5806 5809 5812 5813 5814 5815 5816 5817 5819 5820 5822 5822 5824 5825 5826 5827 5828 5829 5830 5831 5832 5834 5835 5836 5838 5839 5839 5840 5841 5842 5843 5843 5844 5844 5845 5845 5845
5785 5787 5790 5792 5794 5798 5799 5801 5803 5805 5807 5808 5810 5811 5813 5814 5816 5817 5818 5820 5821 5822 5823 5824 5825 5825 5826 5827 5829 5830 5831 5833 5833 5834 5835 5836 5836 5837 5837 5838 5839 5839 5839 5840
5779 5782 5784 5787 5790 5792 5793 5795 5797 5799 5801 5803 5805 5806 5808 5810 5812 5813 5814 5815 5816 5817 5818 5819 5820 5821 5822 5823 5824 5825 5826 5827 5828 5829 5829 5830 5831 5831 5832 5832 5832 5832 5833 5833
5773 5776 5778 5781 5783 5785 5787 5789 5791 5793 5795 5798 5799 5801 5803 5805 5806 5808 5809 5810 5811 5812 5813 5814 5815 5816 5817 5818 5819 5820 5821 5822 5822 5823 5823 5824 5824 5825 5825 5826 5826 5827 5827 5827
5766 5769 5772 5774 5776 5778 5780 5782 5785 5787 5789 5792 5793 5796 5798 5799 5801 5802 5803 5804 5805 5806 5807 5808 5809 5810 5811 5812 5813 5814 5815 5816 5816 5817 5817 5818 5818 5819 5819 5819 5820 5820 5820 5820
5759 5762 5764 5767 5770 5771 5773 5776 5778 5780 5782 5785 5787 5789 5791 5793 5795 5796 5797 5799 5800 5801 5802 5802 5803 5804 5805 5806 5807 5808 5809 5809 5810 5810 5810 5811 5811 5812 5812 5812 5813 5813 5813 5813